Zurück zum Katalog

ATLAS CENTAUR 2 R/B

AktivLEO
NORAD 694·ROCKET BODY·🇺🇸 United States

Gestartet Nov 27, 1963 von Cape Canaveral Space Force Station

Loading…

Nächste Überflüge (nächste 24 Stunden)

TLE

AktuellSource: Space-Track

Epoche: Sep 14, 2026, 00:58 UTC

1 00694U 63047A   26257.04046840  .00002059  00000-0  23750-3 0  9993
2 00694  30.3556 222.4341 0545079 301.1898  53.6369 14.12687245158276

Verfolge ATLAS CENTAUR 2 R/B in Echtzeit mit AllMySat

Download on the App Store